Wind_Speed
11 12 8 4 2 3 9 8 15 14 12 10 9 7 8 6 6 5 5 7 7 6 7 8 9 10 11 10 11 12 12 13 14 15 13 11 14 15 15 16 16 17 17 16 14 13 12 11 11
14 14 10 7 5 3 4 7 12 13 10 9 8 7 6 5 5 6 5 5 4 3 5 6 7 9 12 11 12 13 13 13 13 13 11 11 14 14 15 14 15 15 15 13 12 11 11 10 10
16 18 13 10 10 7 5 3 16 14 9 8 9 8 9 6 2 1 2 2 2 3 5 6 8 10 12 12 12 13 13 13 13 12 8 10 13 13 13 12 13 14 14 12 12 12 11 11 10
14 16 15 11 11 3 6 5 14 11 7 8 9 8 7 6 7 7 6 6 6 4 4 4 7 11 12 12 12 12 13 14 14 11 7 10 12 12 11 10 11 12 12 12 11 11 12 12 11
13 16 14 14 8 6 5 7 12 10 7 5 6 4 6 6 6 7 7 8 6 4 3 3 5 8 10 9 11 12 13 13 12 8 8 11 11 10 9 8 10 11 15 13 11 11 11 9 9
12 14 15 18 15 9 8 13 9 6 6 6 3 4 6 5 4 5 7 7 7 5 5 4 6 7 7 8 9 12 12 12 9 6 7 9 9 8 7 7 8 9 11 11 10 10 11 10 10
12 15 17 18 16 15 11 9 9 7 12 2 1 1 0 5 4 6 5 6 7 6 5 6 8 7 8 8 9 10 11 10 6 6 8 8 7 7 7 6 7 7 8 9 9 9 9 8 8
12 17 19 19 16 16 13 13 15 12 13 4 6 3 1 5 7 8 3 7 7 6 6 6 7 7 7 8 9 9 7 6 5 6 7 6 7 8 7 7 7 6 6 7 7 6 7 6 7
13 20 22 20 17 16 15 14 13 10 10 6 2 5 3 6 8 9 6 6 5 1 2 3 4 5 7 8 9 7 6 4 4 5 6 6 6 7 7 7 7 5 6 6 5 6 7 6 6
14 20 26 22 18 19 19 15 6 12 7 9 5 6 7 9 8 6 6 9 10 8 8 7 6 4 4 3 5 5 3 3 2 3 4 4 4 5 6 6 5 5 5 4 3 5 6 6 7
15 23 29 24 21 21 18 17 18 17 15 11 13 10 12 11 9 7 7 8 11 11 11 10 8 6 4 2 3 5 7 7 4 2 1 1 2 3 3 4 4 4 3 3 3 3 5 7 8
15 26 31 28 25 26 23 23 23 22 20 19 16 12 10 12 10 4 5 7 10 11 11 11 11 10 10 9 8 8 8 7 5 3 4 4 4 5 4 4 5 5 5 4 3 4 5 7 8
17 28 34 32 33 30 26 27 25 23 24 19 16 17 12 13 13 8 6 4 4 7 12 14 14 14 12 12 11 11 10 9 9 7 8 8 7 8 9 9 9 10 9 8 7 6 7 8 9
19 29 37 36 34 33 31 27 28 27 27 20 19 21 17 14 13 12 8 7 6 6 5 6 9 13 13 13 12 12 12 13 12 10 10 11 12 12 12 14 15 16 15 13 13 13 13 12 12
18 35 38 38 37 35 32 32 33 28 28 21 21 21 19 16 15 14 14 13 11 8 8 6 7 9 10 11 17 16 16 15 16 16 15 15 15 14 16 17 20 21 19 20 18 17 18 17 17
20 27 43 41 41 40 37 31 30 28 25 21 20 23 19 20 19 16 16 18 16 13 12 12 12 11 11 15 16 17 20 20 19 18 17 18 19 20 20 21 23 24 25 26 25 23 24 21 22
23 28 42 46 46 45 41 36 31 28 25 24 23 25 25 21 24 21 19 19 20 18 16 17 18 16 17 18 18 20 18 19 20 21 22 22 23 24 24 25 26 26 28 29 30 29 29 27 28
27 30 34 44 50 49 45 43 38 35 32 30 30 31 32 31 29 26 25 24 24 21 21 22 21 20 21 22 21 21 21 22 22 23 23 24 25 27 28 30 31 32 31 32 32 32 31 31 31
29 32 35 37 51 51 50 47 44 42 40 38 36 36 37 32 34 31 27 29 30 30 27 28 31 29 27 25 26 26 25 27 26 28 25 26 26 29 31 31 33 34 36 36 35 34 33 33 33
30 34 34 36 40 51 52 51 48 46 44 42 37 37 39 38 38 36 35 33 32 33 37 37 32 38 34 29 33 33 31 30 32 30 36 34 33 32 34 36 36 40 40 39 37 37 37 37 38
29 29 30 32 34 37 48 53 52 49 48 46 41 40 43 43 43 40 40 38 38 36 35 32 35 33 44 42 38 40 39 37 37 38 38 40 39 41 47 49 43 42 44 43 42 37 35 37 39
27 27 30 30 31 34 36 45 52 54 52 49 43 41 41 40 37 44 43 45 41 41 41 41 42 43 44 42 38 40 40 44 45 43 44 44 45 47 55 52 38 29 21 34 32 27 30 36 42
26 29 30 34 36 38 39 39 42 45 45 45 43 41 39 36 38 40 38 39 42 44 44 43 43 44 45 46 47 50 50 49 48 50 46 44 48 53 59 57 42 35 30 19 20 22 26 32 41
26 30 33 39 40 43 42 42 44 43 43 41 40 40 42 41 41 42 41 42 44 45 46 48 49 51 52 54 54 55 54 55 51 48 47 50 51 51 54 51 43 42 40 37 27 28 28 30 27
27 31 34 38 45 50 45 43 46 44 44 44 43 42 42 44 46 47 48 51 53 53 53 54 55 55 57 58 60 59 59 59 59 57 55 53 53 53 53 55 54 53 51 50 46 36 35 35 35
30 32 36 38 42 43 45 51 50 47 46 41 40 40 42 44 47 50 52 54 55 57 59 61 63 64 65 64 63 61 63 63 64 65 63 62 61 60 61 61 60 58 56 54 52 47 43 44 42
33 37 37 38 41 42 45 46 47 44 42 42 39 40 43 46 48 50 51 52 54 54 54 54 54 54 54 54 54 57 60 64 66 69 72 71 71 67 66 67 66 64 61 59 58 56 52 50 50
36 35 36 38 42 42 44 44 46 43 42 43 43 43 45 47 48 50 51 52 52 53 55 58 60 59 60 61 60 61 63 62 63 64 65 66 68 69 68 66 64 65 64 62 63 64 62 61 57
32 36 38 40 43 44 45 49 47 47 48 47 48 47 45 47 50 52 52 50 51 53 55 57 59 61 64 65 66 65 63 63 65 67 68 69 70 70 71 71 70 69 67 69 69 69 68 69 65
34 34 34 37 40 43 45 49 46 44 42 47 42 45 49 50 55 53 53 53 53 54 56 58 59 61 63 65 65 67 69 71 72 72 73 74 75 76 76 76 75 74 74 74 73 73 73 72 70
Wind_Direction
181 167 167 178 90 72 34 98 131 114 122 135 122 119 99 92 85 81 76 64 62 48 30 16 4 354 348 343 342 341 338 345 348 354 0 20 22 18 22 24 25 28 29 27 31 34 35 38 44
188 182 183 195 215 273 358 124 143 138 113 118 125 111 92 90 116 125 109 96 83 37 13 0 357 347 344 335 333 334 335 339 347 360 8 26 20 21 24 31 34 32 35 34 35 37 36 41 42
191 192 197 213 236 255 287 277 167 157 137 134 128 121 102 99 102 3 11 0 3 335 335 353 351 346 330 329 329 329 332 338 351 3 23 29 22 24 31 38 38 36 36 36 44 48 53 60 65
204 204 206 209 243 241 272 245 182 150 146 148 129 108 71 41 20 48 38 20 5 328 310 343 338 331 328 323 327 332 336 341 348 2 30 26 24 30 35 40 40 31 35 37 45 51 60 67 65
201 205 203 194 200 200 173 162 166 181 180 143 119 63 18 3 3 357 336 324 314 322 330 324 321 322 318 319 329 331 335 342 349 13 29 19 17 32 37 38 40 44 45 43 44 46 51 50 48
214 204 195 194 202 165 139 147 197 224 180 185 182 328 337 336 15 12 13 340 312 288 264 282 289 302 306 312 322 329 334 339 354 22 29 12 13 23 35 36 48 41 30 34 42 46 45 38 35
210 202 191 192 201 209 211 213 186 174 171 188 253 337 197 20 30 86 37 346 316 279 268 269 283 302 301 309 318 327 333 342 11 31 17 5 14 16 23 32 34 28 30 32 35 36 34 37 29
211 202 193 191 195 187 187 184 183 174 167 176 106 100 72 51 60 40 26 19 348 305 271 267 284 299 300 301 319 325 344 358 22 16 7 1 10 13 16 24 18 20 17 20 16 25 31 27 19
209 201 192 198 198 194 198 186 186 177 178 185 231 321 5 46 65 50 48 52 39 336 281 291 304 293 292 309 318 324 341 23 38 4 0 7 14 13 20 19 7 15 8 7 24 50 38 29 19
207 201 191 199 199 189 199 199 202 194 219 192 190 217 183 156 157 176 159 167 169 171 170 180 187 212 233 261 293 308 0 67 41 16 8 15 8 17 14 9 356 354 355 10 35 20 23 23 359
203 191 197 200 195 188 196 198 227 223 245 236 272 221 200 181 172 178 154 165 177 182 176 172 175 176 185 175 165 153 147 160 151 160 183 346 336 345 350 338 326 315 323 340 1 351 8 359 356
201 191 200 205 204 207 197 207 212 242 235 253 276 216 218 210 188 187 165 169 175 178 181 188 180 176 173 176 171 160 161 176 153 165 201 226 239 248 258 259 270 264 259 265 275 305 311 320 323
205 196 197 207 216 216 213 216 231 237 251 262 269 257 235 244 193 205 198 190 191 197 197 190 186 191 186 183 179 174 179 186 192 209 214 218 233 247 255 253 247 252 252 255 255 259 265 281 296
210 204 204 215 222 218 220 219 226 240 251 275 274 262 264 247 227 203 219 217 221 217 211 240 236 213 212 222 218 217 215 214 218 219 235 235 238 243 253 261 256 247 250 253 248 251 258 263 276
206 203 206 218 225 232 234 228 234 243 260 280 277 276 277 249 241 209 218 219 215 230 242 236 237 234 230 233 249 234 235 235 237 238 239 243 247 251 258 262 267 266 264 263 261 262 268 273 277
212 209 207 219 229 235 241 244 247 249 262 272 280 283 281 285 241 238 230 220 218 217 242 257 241 251 244 247 250 249 247 243 246 251 254 257 257 257 258 261 263 267 266 268 271 271 273 275 277
216 210 210 216 227 232 241 246 249 253 259 266 271 274 281 286 253 233 235 236 227 218 230 252 266 269 264 264 265 268 267 261 263 264 264 263 263 264 268 270 273 271 271 270 269 270 272 273 272
220 218 218 217 222 229 236 246 249 251 256 262 268 273 278 281 252 258 228 237 245 246 235 246 255 264 265 265 261 269 273 280 278 279 280 283 282 279 273 271 270 273 274 272 269 270 272 274 272
227 223 220 218 220 227 236 243 250 256 261 262 265 272 278 277 280 253 246 237 244 250 248 256 258 231 251 259 267 268 266 273 286 280 299 289 288 287 282 277 276 274 270 269 271 268 268 270 272
231 235 233 226 223 228 233 239 244 252 257 260 261 264 272 276 273 257 250 255 249 255 253 255 257 265 250 248 263 263 265 271 275 283 280 290 285 285 285 275 278 282 279 274 271 272 269 268 267
242 246 244 240 236 232 234 235 240 246 251 255 259 261 263 269 269 262 256 257 260 266 264 264 269 272 278 286 258 255 257 265 274 275 280 281 284 282 278 273 277 277 277 286 272 264 276 273 272
248 247 246 247 246 240 242 240 243 245 248 253 256 257 259 269 269 257 258 259 262 261 266 270 273 271 276 279 275 281 275 274 268 270 276 275 277 278 273 273 280 274 291 292 280 268 265 279 280
241 240 240 232 233 236 239 245 243 246 249 253 253 253 257 262 267 270 266 267 273 272 273 273 274 276 280 282 283 282 283 282 276 278 275 275 278 277 279 285 289 279 277 277 283 265 280 283 269
237 238 235 230 233 237 239 243 248 249 251 254 258 259 259 263 266 270 272 271 271 271 272 273 275 276 276 277 279 281 281 282 282 279 275 272 273 276 279 287 283 280 280 284 270 269 276 280 279
236 234 235 236 238 241 244 248 254 258 260 265 268 268 266 265 266 268 269 270 271 272 272 271 272 273 275 278 279 280 279 277 276 276 277 276 277 276 276 279 282 284 285 285 280 274 276 277 277
241 236 237 240 246 252 251 253 257 263 267 271 272 271 270 269 269 270 270 270 271 274 277 278 278 278 278 278 279 280 278 278 278 277 275 275 274 276 278 279 279 280 281 282 279 275 272 275 275
238 237 241 244 247 250 251 252 257 261 267 270 271 271 270 268 268 269 270 271 274 275 277 278 280 283 284 284 285 286 287 286 286 287 286 287 285 282 280 276 279 279 280 280 281 279 278 275 275
239 240 241 244 249 251 256 260 265 267 268 267 269 273 276 275 273 272 270 269 270 272 273 273 274 276 280 282 282 284 284 283 283 282 282 282 282 282 284 282 280 280 279 279 275 276 277 276 275
243 242 241 244 246 251 257 260 264 268 272 273 272 273 275 274 276 277 273 272 276 277 276 276 276 275 275 275 276 276 274 274 275 276 276 276 276 275 277 277 277 277 275 276 276 275 274 275 275
249 250 250 248 250 253 256 262 267 271 270 270 277 277 275 276 277 281 280 282 282 281 280 280 280 280 279 279 279 278 278 278 278 278 279 278 277 277 276 274 273 272 272 271 271 273 274 273 273
Height
5906 5908 5909 5910 5913 5911 5910 5912 5911 5912 5914 5914 5915 5915 5916 5917 5917 5919 5917 5915 5915 5916 5916 5916 5916 5916 5915 5914 5913 5912 5911 5909 5908 5907 5906 5904 5901 5900 5899 5897 5896 5895 5895 5894 5893 5892 5892 5892 5892
5906 5908 5910 5910 5912 5911 5912 5912 5913 5912 5913 5914 5916 5917 5917 5918 5917 5917 5916 5916 5915 5916 5915 5915 5915 5914 5914 5914 5913 5912 5911 5910 5908 5907 5906 5905 5903 5901 5900 5899 5898 5898 5897 5897 5895 5894 5893 5893 5893
5906 5908 5910 5911 5910 5911 5910 5911 5911 5912 5913 5915 5916 5916 5918 5918 5918 5917 5916 5916 5915 5915 5915 5915 5914 5914 5913 5913 5913 5912 5911 5910 5908 5907 5906 5905 5904 5903 5901 5901 5900 5899 5898 5899 5897 5896 5895 5894 5894
5904 5907 5910 5911 5910 5912 5911 5909 5912 5914 5914 5913 5915 5917 5918 5918 5918 5918 5917 5916 5915 5914 5914 5913 5913 5913 5913 5913 5912 5911 5910 5909 5908 5907 5906 5906 5905 5904 5903 5902 5901 5901 5900 5900 5899 5898 5896 5896 5895
5904 5906 5909 5910 5910 5912 5911 5910 5912 5913 5914 5914 5915 5916 5917 5918 5917 5916 5916 5915 5915 5914 5913 5912 5912 5912 5912 5912 5912 5910 5909 5908 5908 5907 5907 5907 5906 5904 5904 5904 5903 5902 5901 5900 5899 5897 5896 5896 5896
5901 5905 5908 5909 5910 5912 5912 5913 5913 5914 5915 5916 5916 5916 5917 5917 5915 5914 5914 5914 5913 5913 5912 5912 5912 5912 5911 5911 5910 5910 5909 5908 5907 5907 5907 5906 5906 5905 5904 5904 5904 5903 5902 5901 5899 5898 5897 5896 5896
5900 5902 5906 5907 5908 5911 5913 5913 5913 5914 5915 5916 5916 5916 5917 5916 5913 5912 5912 5911 5911 5911 5911 5911 5911 5911 5911 5911 5909 5908 5908 5907 5907 5907 5907 5907 5906 5905 5905 5905 5905 5904 5903 5901 5900 5899 5899 5897 5896
5898 5901 5903 5905 5908 5910 5912 5912 5913 5915 5916 5916 5916 5916 5916 5914 5912 5910 5909 5908 5909 5910 5910 5911 5911 5911 5910 5910 5909 5908 5907 5908 5908 5908 5907 5907 5906 5905 5905 5905 5904 5904 5903 5901 5900 5899 5898 5897 5896
5895 5898 5901 5904 5906 5909 5911 5912 5914 5915 5916 5916 5916 5916 5915 5912 5910 5909 5907 5907 5908 5908 5908 5909 5909 5909 5909 5908 5907 5907 5906 5906 5907 5908 5908 5907 5906 5906 5905 5905 5904 5904 5903 5902 5901 5900 5899 5898 5897
5892 5895 5898 5901 5904 5907 5910 5913 5914 5915 5913 5908 5909 5909 5905 5903 5902 5901 5899 5897 5898 5899 5898 5899 5899 5900 5901 5900 5901 5903 5904 5905 5905 5906 5906 5905 5905 5904 5904 5904 5904 5903 5902 5902 5901 5900 5900 5899 5898
5889 5894 5895 5898 5902 5906 5907 5908 5903 5902 5903 5904 5904 5904 5901 5900 5900 5900 5899 5898 5897 5896 5896 5897 5897 5898 5899 5900 5899 5898 5899 5899 5900 5901 5902 5903 5903 5903 5903 5902 5902 5902 5901 5901 5900 5899 5898 5897 5896
5887 5889 5892 5896 5898 5899 5903 5902 5901 5900 5901 5902 5904 5901 5900 5899 5900 5901 5899 5898 5897 5896 5895 5895 5895 5895 5895 5896 5896 5896 5896 5897 5896 5898 5899 5900 5899 5899 5898 5898 5899 5899 5898 5897 5897 5897 5896 5895 5894
5884 5885 5888 5891 5887 5893 5897 5897 5897 5898 5898 5900 5900 5901 5899 5899 5899 5900 5899 5898 5896 5896 5894 5891 5892 5892 5893 5893 5893 5894 5895 5895 5895 5897 5897 5897 5897 5896 5895 5895 5895 5895 5895 5895 5894 5892 5891 5890 5889
5881 5882 5882 5883 5885 5888 5891 5893 5894 5895 5895 5899 5899 5899 5899 5898 5898 5899 5899 5899 5897 5896 5895 5895 5895 5891 5891 5892 5893 5894 5894 5893 5893 5893 5894 5893 5893 5893 5893 5893 5892 5891 5891 5892 5892 5890 5888 5887 5886
5876 5878 5880 5879 5881 5884 5887 5889 5887 5892 5892 5894 5896 5897 5897 5896 5896 5896 5897 5897 5897 5896 5895 5896 5895 5895 5893 5892 5893 5892 5892 5891 5890 5890 5890 5889 5890 5890 5890 5891 5890 5890 5890 5889 5889 5888 5887 5886 5884
5871 5873 5877 5875 5876 5878 5880 5882 5885 5888 5889 5890 5892 5893 5895 5895 5894 5895 5895 5895 5895 5895 5894 5894 5895 5895 5894 5893 5893 5891 5889 5887 5887 5887 5888 5888 5887 5886 5884 5884 5885 5885 5885 5885 5885 5885 5883 5883 5881
5867 5867 5870 5872 5871 5874 5875 5878 5881 5883 5885 5887 5888 5890 5890 5892 5892 5892 5893 5894 5893 5893 5893 5894 5893 5893 5893 5892 5892 5890 5889 5887 5886 5885 5885 5884 5883 5883 5882 5881 5880 5880 5880 5879 5879 5878 5878 5876 5876
5861 5862 5864 5867 5867 5868 5870 5873 5876 5879 5881 5882 5884 5885 5886 5888 5889 5889 5889 5890 5891 5890 5890 5891 5891 5891 5891 5890 5890 5889 5888 5886 5886 5883 5882 5881 5880 5879 5878 5876 5875 5873 5873 5872 5872 5872 5871 5870 5869
5857 5857 5858 5861 5862 5863 5864 5867 5869 5872 5875 5877 5879 5879 5880 5882 5883 5884 5885 5887 5887 5887 5887 5887 5886 5881 5885 5885 5885 5885 5885 5882 5882 5881 5880 5878 5876 5874 5873 5872 5869 5866 5866 5865 5864 5864 5863 5862 5862
5852 5853 5855 5858 5858 5861 5862 5863 5865 5866 5868 5871 5873 5874 5875 5876 5877 5878 5879 5880 5881 5882 5880 5880 5880 5880 5877 5877 5879 5879 5878 5877 5876 5875 5873 5871 5870 5867 5865 5863 5861 5860 5858 5859 5857 5857 5857 5855 5854
5849 5851 5852 5854 5855 5856 5858 5858 5859 5861 5862 5864 5866 5868 5869 5870 5870 5871 5872 5873 5874 5874 5874 5873 5873 5872 5871 5870 5870 5869 5869 5869 5868 5868 5866 5864 5862 5858 5853 5851 5854 5851 5850 5852 5850 5848 5850 5849 5848
5844 5847 5846 5849 5851 5852 5852 5853 5854 5855 5855 5857 5859 5861 5863 5864 5864 5865 5864 5865 5866 5866 5866 5865 5865 5864 5863 5862 5862 5861 5861 5860 5859 5859 5858 5855 5853 5850 5839 5836 5842 5839 5840 5839 5839 5838 5840 5840 5840
5841 5841 5844 5845 5845 5845 5846 5846 5847 5848 5849 5851 5852 5853 5855 5856 5857 5858 5858 5858 5858 5857 5856 5855 5854 5853 5853 5851 5850 5849 5849 5849 5849 5848 5848 5847 5844 5840 5830 5831 5832 5832 5833 5832 5830 5830 5829 5829 5827
5835 5836 5837 5838 5838 5836 5837 5840 5838 5841 5843 5844 5846 5846 5846 5846 5846 5847 5847 5847 5847 5846 5845 5843 5842 5842 5841 5839 5838 5837 5835 5834 5835 5834 5835 5834 5833 5830 5825 5823 5824 5823 5822 5822 5822 5820 5820 5820 5817
5828 5830 5831 5832 5829 5829 5832 5833 5832 5834 5836 5837 5837 5837 5837 5837 5836 5835 5835 5833 5832 5832 5831 5830 5829 5828 5826 5825 5824 5822 5822 5821 5821 5819 5819 5820 5819 5818 5816 5813 5813 5812 5811 5810 5809 5811 5809 5809 5809
5821 5824 5826 5825 5824 5826 5827 5823 5826 5828 5827 5828 5828 5828 5828 5827 5826 5825 5823 5822 5820 5818 5816 5814 5813 5812 5811 5811 5809 5807 5806 5805 5804 5804 5803 5803 5803 5802 5800 5799 5799 5798 5798 5798 5798 5797 5799 5798 5797
5815 5815 5818 5819 5818 5818 5816 5818 5818 5819 5820 5819 5819 5818 5817 5816 5815 5813 5812 5811 5809 5806 5803 5801 5799 5797 5795 5793 5792 5791 5789 5787 5785 5783 5781 5780 5780 5783 5785 5784 5783 5782 5783 5782 5781 5783 5784 5784 5785
5805 5809 5809 5809 5809 5809 5808 5809 5807 5811 5810 5810 5809 5807 5806 5805 5803 5801 5800 5799 5797 5795 5793 5791 5789 5788 5785 5782 5778 5775 5773 5771 5770 5768 5766 5764 5763 5763 5763 5762 5763 5765 5765 5765 5766 5765 5768 5767 5770
5797 5798 5800 5801 5801 5800 5801 5798 5800 5800 5800 5800 5799 5797 5795 5793 5791 5789 5787 5786 5785 5782 5779 5776 5774 5773 5770 5768 5765 5763 5760 5757 5753 5751 5749 5748 5747 5746 5745 5745 5745 5746 5748 5747 5746 5747 5749 5748 5751
5786 5787 5789 5790 5791 5791 5790 5789 5790 5790 5789 5787 5785 5785 5785 5782 5780 5777 5775 5772 5769 5766 5764 5761 5758 5756 5752 5749 5747 5744 5741 5738 5735 5732 5729 5727 5726 5725 5725 5725 5725 5726 5726 5727 5727 5728 5727 5729 5730